This demonstration page uses our WeatherBlox Daily Observations layout. Learn more.

Left ArrowRight Arrow

39.01783, -85.05884

Hourly Observations for May 1, 2022

Temp ( °F °C ) Dew Point ( °F °C ) Humidity (%) Winds ( mph kmh ) Pressure ( in mb ) Visibility ( mi km ) Precip ( " mm )
12:52 am 00:52 Cloudy 66 18.9 59 15 78 78 SSW 8 13 29.82 1010 10 16 0.00 0.00
1:52 am 01:52 Cloudy 64 17.8 60 15.6 87 87 S 9 15 29.79 1009 10 16 0.00 0.00
2:52 am 02:52 Cloudy 68 20 60 15.6 76 76 S 12 19 29.77 1008 10 16 0.00 0.00
3:52 am 03:52 Cloudy 69 20.6 60 15.6 73 73 S 15 24 29.76 1008 10 16 0.00 0.00
4:52 am 04:52 Cloudy 68 20 61 16.1 78 78 SSW 12 19 29.76 1008 10 16 0.00 0.00
5:52 am 05:52 Cloudy 67 19.4 62 16.7 84 84 S 12 19 29.78 1008 10 16 0.00 0.00
6:52 am 06:52 Cloudy 68 20 62 16.7 81 81 SSW 12 19 29.80 1009 10 16 0.00 0.00
7:52 am 07:52 Cloudy 65 18.3 63 17.2 93 93 SW 10 17 29.83 1010 10 16 0.10 2.54
8:32 am 08:32 Cloudy 62 16.7 56 13.3 80 80 W 7 11 29.86 1011 10 16 0.00 0.00
8:52 am 08:52 Cloudy 62 16.7 56 13.3 80 80 W 6 9 29.85 1011 10 16 0.00 0.00
9:52 am 09:52 Mostly Cloudy 65 18.3 58 14.4 78 78 S 5 7 29.85 1011 10 16 0.00 0.00
10:52 am 10:52 Mostly Cloudy 68 20 59 15 73 73 SSW 13 20 29.85 1011 10 16 0.00 0.00
11:27 am 11:27 Partly Cloudy 70 21.1 59 15 68 68 SSW 12 19 29.83 1010 10 16 0.00 0.00
11:52 am 11:52 Partly Cloudy 70 21.1 57 13.9 64 64 SW 15 24 29.84 1010 10 16 0.00 0.00
12:52 pm 12:52 Mostly Sunny 72 22.2 46 7.8 40 40 SSW 21 33 29.83 1010 10 16 0.00 0.00
1:52 pm 13:52 Mostly Sunny 73 22.8 46 7.8 38 38 SSW 18 30 29.82 1010 10 16 0.00 0.00
2:52 pm 14:52 Mostly Sunny 74 23.3 45 7.2 36 36 SW 15 24 29.82 1010 10 16 0.00 0.00
3:52 pm 15:52 Mostly Sunny 75 23.9 43 6.1 32 32 WSW 22 35 29.82 1010 10 16 0.00 0.00
4:52 pm 16:52 Partly Cloudy 75 23.9 43 6.1 32 32 WSW 20 31 29.82 1010 10 16 0.00 0.00
5:52 pm 17:52 Partly Cloudy 74 23.3 42 5.6 32 32 W 16 26 29.83 1010 10 16 0.00 0.00
6:52 pm 18:52 Mostly Sunny 72 22.2 42 5.6 34 34 W 18 30 29.84 1011 10 16 0.00 0.00
7:52 pm 19:52 Sunny 69 20.6 45 7.2 42 42 W 14 22 29.86 1011 10 16 0.00 0.00
8:52 pm 20:52 Clear 63 17.2 47 8.3 56 56 W 7 11 29.90 1013 10 16 0.00 0.00
9:52 pm 21:52 Clear 62 16.7 49 9.4 62 62 NNW 10 17 29.93 1014 10 16 0.00 0.00
10:52 pm 22:52 Clear 59 15 48 8.9 67 67 NNW 9 15 29.96 1015 10 16 0.00 0.00
11:52 pm 23:52 Clear 56 13.3 47 8.3 72 72 NW 7 11 29.98 1015 10 16 0.00 0.00

Powered by AerisWeather